www.pogodaiklimat.ru

Погода и климат >> Архив погоды >> Грузия >> Зугдиди


ПОГОДА в Зугдиди

АРХИВ ПОГОДЫ в Зугдиди

Время (UTC), дата Ветер
(напр.,м/с)
 
Видим.   Явления Облачность Т
(С)
Тd
(С)
f
(%)
Тe
(С)
Тes
(С)
Комфортность P
(гПа)
Po
(гПа)
Тmin
(С)
Tmax
(С)
R
(мм)
R24
(мм)
S
(см)
00 18.03 С 2 н/о н/о +5.1 +4.4 95 +2 +2 по сезону 1026.7 1006.4 1
03 18.03 С 1 н/о н/о +5.0 +4.9 99 +3 +3 по сезону 1027.3 1007.0
06 18.03 З 2 н/о н/о +7.0 +5.3 89 +5 +5 по сезону 1028.5 1008.3 +4.9 5
09 18.03 ЮЗ 5 н/о н/о +8.9 +3.7 70 +6 +6 прохладно 1028.6 1008.5
12 18.03 ЮЗ 4 н/о н/о +10.7 +3.9 63 +8 +8 прохладно 1028.2 1008.3
15 18.03 З 3 н/о н/о +9.3 +2.9 64 +7 +7 по сезону 1028.5 1008.5 +11.7
18 18.03 СВ 1 н/о н/о +6.0 +3.6 85 +5 +5 по сезону 1029.5 1009.3 +11.7
21 18.03 ЮВ 1 н/о н/о +3.1 +2.6 97 +1 +1 прохладно 1029.6 1009.2
00 19.03 С 2 н/о н/о +1.6 +1.4 99 -2 -2 холодно 1030.2 1009.6
03 19.03 СВ 1 н/о н/о +0.5 +0.3 99 -2 -2 холодно 1030.3 1009.7
06 19.03 ЮВ 3 н/о н/о +9.7 +0.6 53 +8 +8 по сезону 1030.2 1010.2 +0.3
09 19.03 ЮВ 2 н/о н/о +13.2 -0.6 39 +13 +13 тепло 1028.5 1008.8
12 19.03 Ю 4 н/о н/о +15.3 -0.4 34 +15 +15 тепло 1026.6 1007.0
15 19.03 СЗ 2 н/о н/о +13.3 +2.8 49 +13 +13 тепло 1026.1 1006.4 +16.6
18 19.03 СВ 2 н/о н/о +7.1 +3.9 80 +5 +5 по сезону 1026.7 1006.6 +16.6
21 19.03 СВ 2 н/о н/о +5.3 +3.0 85 +3 +3 по сезону 1025.9 1005.7
00 20.03 В 1 н/о н/о +3.9 +2.4 90 +2 +2 по сезону 1025.4 1005.1
03 20.03 С 1 н/о н/о +2.3 +1.5 94 +1 +1 прохладно 1025.5 1005.0
06 20.03 Ю 2 н/о н/о +12.4 +2.8 52 +12 +12 тепло 1025.3 1005.5 +1.8
09 20.03 З 5 н/о н/о +16.1 +4.5 46 +15 +15 тепло 1024.6 1005.2
12 20.03 З 7 н/о н/о +17.0 +5.1 45 +16 +16 тепло 1024.1 1004.7
15 20.03 З 4 н/о н/о +13.1 +2.0 47 +12 +12 тепло 1025.5 1005.8 +17.8
18 20.03 ЮЗ 3 н/о н/о +8.7 +8.3 97 +6 +6 по сезону 1028.0 1008.0 +17.8
21 20.03 ЮЗ 2 н/о н/о +8.4 +6.9 90 +6 +6 по сезону 1029.3 1009.2
00 21.03 ЮВ 1 н/о н/о +6.9 +6.5 97 +6 +6 по сезону 1030.2 1010.0
03 21.03 В 1 н/о н/о +4.9 +5.0 100 +3 +3 прохладно 1030.7 1010.4
06 21.03 СЗ 3 н/о н/о +8.6 +5.8 83 +6 +6 по сезону 1032.1 1011.9 +4.5
09 21.03 З 4 н/о н/о +11.3 +3.1 57 +9 +9 по сезону 1032.3 1012.4
12 21.03 З 5 н/о н/о +10.5 +3.2 61 +8 +8 прохладно 1032.0 1012.0
15 21.03 З 4 н/о н/о +8.6 +3.8 72 +6 +6 прохладно 1032.5 1012.4 +13.2
18 21.03 З 2 н/о н/о +7.7 +5.4 85 +6 +6 по сезону 1033.4 1013.2 +13.2
21 21.03 С 1 н/о н/о +7.5 +5.7 88 +7 +7 по сезону 1033.4 1013.2
00 22.03 ЮВ 2 н/о н/о +7.3 +5.9 91 +5 +5 по сезону 1033.1 1012.9
03 22.03 ЮВ 1 н/о н/о +6.0 +5.5 97 +5 +5 по сезону 1032.6 1012.3
06 22.03 С 3 н/о н/о +5.9 +5.7 99 +2 +2 холодно 1033.0 1012.7 +5.7 10
09 22.03 В 3 н/о н/о +6.5 +6.0 97 +3 +3 холодно 1032.3 1012.1 5
12 22.03 СВ 3 н/о н/о +8.0 +6.5 90 +5 +5 очень
холодно
1031.4 1011.2 8
15 22.03 ЮЗ 4 н/о н/о +8.3 +5.0 80 +5 +5 прохладно 1030.9 1010.8 +10.3
18 22.03 В 2 н/о н/о +6.0 +4.5 90 +4 +4 прохладно 1031.4 1011.1 +10.3 8
21 22.03 ЮВ 1 н/о н/о +5.7 +5.7 100 +4 +4 по сезону 1030.5 1010.2 2
00 23.03 СВ 2 н/о н/о +5.2 +4.8 97 +2 +2 по сезону 1029.2 1008.9 2
03 23.03 ЮВ 1 н/о н/о +5.1 +5.1 100 +4 +4 по сезону 1027.3 1007.0
06 23.03 В 3 н/о н/о +6.6 +4.8 88 +3 +3 холодно 1026.2 1006.1 +4.9 2
09 23.03 В 3 н/о н/о +8.1 +3.5 73 +6 +6 прохладно 1023.8 1003.8
12 23.03 СВ 3 н/о н/о +6.6 +5.5 93 +3 +3 очень
холодно
1022.6 1002.5 0.7
15 23.03 С 2 н/о н/о +5.7 +5.0 95 +3 +3 холодно 1022.2 1002.1 +8.3 3
18 23.03 С 2 н/о н/о +4.5 +4.2 98 +2 +2 холодно 1023.0 1002.8 +8.2 7
21 23.03 СВ 3 н/о н/о +4.3 +3.9 97 0 0 холодно 1023.5 1003.2 3
00 24.03 С 3 н/о н/о +3.2 +3.1 99 -1 -1 холодно 1023.9 1003.6 3
03 24.03 В 1 н/о н/о +3.7 +3.7 100 +2 +2 прохладно 1024.2 1003.9
06 24.03 Ю 4 н/о н/о +4.7 +3.1 89 0 0 очень
холодно
1024.9 1004.7 +3.2 3
09 24.03 З 4 н/о н/о +7.0 +2.0 70 +4 +4 холодно 1024.9 1004.8
12 24.03 ЮЗ 5 н/о н/о +8.6 +0.5 57 +5 +5 очень
холодно
1023.4 1003.4
15 24.03 З 4 н/о н/о +7.1 +1.6 68 +4 +4 холодно 1024.5 1004.4 +9.7
18 24.03 ЮВ 1 н/о н/о +2.8 +1.9 94 +1 +1 холодно 1026.5 1006.1 +9.7
21 24.03 В 1 н/о н/о +2.3 +2.2 99 0 0 холодно 1026.2 1005.7

 

Местоположение метеостанции Зугдиди (Грузия): широта 42.50 долгота 41.88 высота над уровнем моря 117 м.

В архиве по умолчанию представлена погода в Зугдиди за последнюю неделю. Архивные данные за месяц целиком и за предыдущие месяцы, начиная с января 2011 года, Вы можете получить, выбрав интересующий диапазон дат из раскрывающегося списка и нажав кнопку "Ввод!".


*Определитесь, кто Вы:
робот инопланетянин человек

Внимание! Время в таблицах - всемирное. Для получения местного времени необходимо прибавить поправку, которая равна 4 ч.

Смотрите также архив погоды в соседних городах и на ближайших метеорологических станциях:

Погода в Кутаиси (Грузия) (67 км)
Погода на Клухорском Перевале (Карачаево-Черкессия, Россия) (68 км)
Погода в Чегете (Кабардино-Балкария, Россия) (96 км)
Погода в Терсколе (Кабардино-Балкария, Россия) (98 км)
Погода на Леднике Гарабаши (Карачаево-Черкессия, Россия) (99 км)
Погода в Домбае (Карачаево-Черкессия, Россия) (99 км)
Погода в Батуми (Грузия) (101 км)
Погода в Сакаре (Грузия) (103 км)
Погода в Амролаури (Грузия) (104 км)
Погода в Теберде (Карачаево-Черкессия, Россия) (106 км)

Пояснения к столбцам:

Ветер - указаны скорость ветра в м/с - средняя за 10 мин, порывы в срок и между сроками (в фигурных скобках) и направление, откуда дует ветер: С - северный, СВ - северо-восточный, В - восточный, ЮВ - юго-восточный, Ю - южный, ЮЗ - юго-западный, З - западный, СЗ - северо-западный.
Видимость - горизонтальная дальность видимости в метрах или километрах. При видимости от 1 до 10 км при отсутствии осадков обычно наблюдается дымка, при ухудшении видимости до 1 км и менее - туман. В сухую погоду видимость может ухудшаться дымом, пылью или мглою.
Явления - указаны атмосферные явления, наблюдавшиеся в срок или в последний час перед сроком; фигурными скобками обозначены явления, наблюдавшиеся между сроками (за 1-3 часа до срока); квадратными скобками обозначены град или гололедные отложения с указанием их диаметра в мм.
Облачность - указаны через наклонную черту общая и нижняя облачность в баллах и высота нижней границы облаков в метрах; квадратными скобками обозначены формы облаков: Ci - перистые, Cs - перисто-слоистые, Cc - перисто-кучевые, Ac - высококучевые, As - высокослоистые, Sc - слоисто-кучевые, Ns - слоисто-дождевые, Cu - кучевые, Cb - кучево-дождевые. Подробнее классификацию облаков см. в Атласе облаков (PDF).
T - Температура воздуха - температура, измеренная на высоте 2 м над землей.
Td - Температура точки росы - температура, при понижении до которой содержащийся в воздухе водяной пар достигнет насыщения.
f - Относительная влажность воздуха - влажноcть воздуха, измеренная на высоте 2 м над землей.
Te - Эффективная температура - температура, которую ощущает одетый по сезону человек в тени. Характеристика душности погоды. При расчете учитывается влияние влажности воздуха и скорости ветра на теплоощущения человека.
Tes - Эффективная температура на солнце - температура, которую ощущает человек, с поправкой на солнечный нагрев. Характеристика знойности погоды. Зависит от высоты солнца над горизонтом, облачности и скорости ветра. Ночью, в пасмурную погоду, а также при ветре 12 м/с и более поправка равна нулю.
P - Атмосферное давление - приведенное к уровню моря атмосферное давление.
Po - Атмосферное давление - измеренное на уровне метеостанции атмосферное давление.
Tmin - Минимальная температура - минимум температуры воздуха на высоте 2 м над землей.
Tmax - Максимальная температура - максимум температуры воздуха на высоте 2 м над землей.
R - Количество осадков - Количество выпавших осадков за период времени, мм. При наведении курсора мыши на число - период времени, за который выпало указанное количество осадков.
R24 - Количество осадков - Количество выпавших осадков за 24 часа, мм.
S - Снежный покров - Высота снежного покрова, см. При наведении курсора мыши на число - состояние снежного покрова и степень покрытия местности в баллах.